Home > Weather > Daytona Beach > Past weeks

Flag for USA Past Weather in Daytona Beach, Florida, USA — Yesterday and Last 2 Weeks

Now
69 °F

Passing clouds.


Feels Like: 69 °F
Forecast: 69 / 87 °F
Wind: No wind

Location: Daytona Beach Regional Airport

Current Time: May 29, 2016 at 7:35:05 AM

Latest Report: May 29, 2016 at 6:53 AM


Visibility: 10 mi

Pressure: 30.05 "Hg

Humidity: 100%

Dew Point: 69 °F

Location of Daytona BeachLocation

Past Weather in Daytona Beach — Graph

°F

Daytona Beach Temperature Yesterday

Maximum temperature yesterday: 85 °F (at 11:53 AM)
Minimum temperature yesterday: 69 °F (at 6:53 AM)
Average temperature yesterday: 78 °F

High & Low Weather Summary for the Past Weeks

 TemperatureHumidityPressure
High91 °F (May 19, 3:53 PM)100% (May 14, 5:53 AM)30.24 "Hg (May 14, 5:53 AM)
Low60 °F (May 15, 6:53 AM)37% (May 22, 4:53 PM)29.82 "Hg (May 22, 4:53 PM)
Average77 °F74%30.03 "Hg
* Reported May 14 5:53 AM — May 29 5:53 AM, Daytona Beach, Weather by CustomWeather, © 2016

Note: Actual official high and low records may vary slightly from our data, if they occured in-between our weather recording intervals... More about our weather records

Advertising

Daytona Beach Weather History for the Previous 24 Hours

Scroll right to see more
 ConditionsComfort  
Time TempWeatherWind HumidityBarometerVisibility
5:53 AM
Sun, May 29
69 °FPassing clouds.3 mph96%30.03 "Hg10 mi
4:53 AM69 °FClear.3 mph96%30.03 "Hg10 mi
3:53 AM70 °FPassing clouds.No wind97%30.03 "Hg10 mi
2:53 AM70 °FPassing clouds.5 mph97%30.04 "Hg10 mi
1:53 AM71 °FPartly cloudy.3 mph96%30.06 "Hg10 mi
12:53 AM73 °FPassing clouds.No wind90%30.05 "Hg10 mi
11:53 PM
Sat, May 28
75 °FPassing clouds.6 mph85%30.05 "Hg10 mi
10:53 PM76 °FPassing clouds.8 mph80%30.05 "Hg10 mi
9:53 PM76 °FPassing clouds.9 mph82%30.03 "Hg10 mi
8:53 PM77 °FPassing clouds.8 mph79%30.02 "Hg10 mi
7:53 PM78 °FScattered clouds.13 mph76%30.01 "Hg10 mi
6:53 PM80 °FPassing clouds.16 mph71%30.00 "Hg10 mi
5:53 PM83 °FScattered clouds.15 mph65%30.00 "Hg10 mi
4:53 PM85 °FPassing clouds.15 mph59%29.99 "Hg10 mi
3:53 PM85 °FPassing clouds.17 mph63%29.99 "Hg10 mi
2:53 PM85 °FScattered clouds.16 mph63%30.01 "Hg10 mi
1:53 PM85 °FPassing clouds.14 mph63%30.01 "Hg10 mi
12:53 PM85 °FPassing clouds.15 mph63%30.03 "Hg10 mi
11:53 AM85 °FScattered clouds.3 mph59%30.04 "Hg10 mi
10:53 AM84 °FScattered clouds.8 mph63%30.04 "Hg10 mi
9:53 AM82 °FPartly sunny.6 mph72%30.04 "Hg10 mi
8:53 AM78 °FScattered clouds.6 mph79%30.04 "Hg10 mi
7:53 AM74 °FPassing clouds.3 mph88%30.03 "Hg10 mi
Weather by CustomWeather, © 2016

See weather overviewHow to use our weather pages